Starlink 11702

operational
NORAD ID: 63752 Int'l Des: 2025-089 Owner: SPXS Country: US Constellation: starlink
LEOCIRCULAR

Über Starlink 11702

Beschreibung wird geladen...

Live-Position

3D-Globus wird geladen...

Nächste Überflüge

Höhenverlauf

Altitude vs Time

uPlot chart will show altitude changes over time

Zweizeiliger Elementsatz

1 63752U 25089B 25353.17751495 .00201607 00000-0 15284-2 0 9992
2 63752 43.0020 57.4919 0003339 254.0033 106.0467 15.70967865 37473
Epoch: 19. Dez. 2025 • Age: 13 hours

Aktueller Status

Höhe 366.6 km
Geschwindigkeit 7.69 km/s
Subsatellitenpunkt -42.95°S, 21.87°W
Startdatum 29. Apr. 2025
Alter 0.6 years
Typ internet

Technische Details

Klassifizierung Payload
Masse 960.00 kg
Trockenmasse 910.00 kg
Gesamtmasse 960.00 kg
Länge 0.30 m
Durchmesser 4.10 m
Spannweite 29.00 m
Form Box + pan
Hersteller SPXS
Bus-Typ Starlink V2MD
Phasenstatus In Orbit
Besitzer/Staat SPXS/US

Große Konstellationen

Loading constellations...